Location: Saint-Palais-sur-Mer
(45.6429°N, 1.0859°W)
Time: 14:28:43
(UTC+01:00)

BlueWalker 3 - Pass Details

Date: 26 January 2026
Orbit: 451 x 461 km, 53.2° (Epoch: 13 February)

Event Time Altitude Azimuth Distance (km) Brightness Sun altitude
Rises 20:13:27 0° 277° (W) 2,456 6.8 -22.9°
Reaches altitude 10° 20:15:49 10° 291° (WNW) 1,584 5.4 -23.3°
Enters shadow 20:18:21 25° 334° (NNW) 952 3.5 -23.8°
